Regional Weather Roundup
Issued by NWS Northern Indiana

Home | Current Version | Previous Version | Graphics & Text | Print | Product List | Glossary On
Versions: 1 2 3 4 5 6 7 8 9 10 11 12 13 14 15 16 17 18 19 20 21 22 23 24 25 26 27 28 29 30 31 32 33 34 35 36 37 38 39 40 41 42 43 44 45 46 47 48 49 50
000
ASUS43 KIWX 011500
RWRIWX

KIWX WEATHER ROUNDUP
NATIONAL WEATHER SERVICE NORTHERN INDIANA
1100 AM EDT WED OCT 01 2014

NOTE: "FAIR" INDICATES FEW OR NO CLOUDS BELOW 12,000 FEET WITH NO
SIGNIFICANT WEATHER AND/OR OBSTRUCTIONS TO VISIBILITY.

* THESE STATIONS ARE NOT UNDER NWS QUALITY CONTROL. THEY ALSO MAY NOT
  REPORT WEATHER SUCH AS PRECIPITATION OR FOG.

INZ001>027-011600-
NORTHERN INDIANA

CITY           SKY/WX    TMP DP  RH WIND       PRES   REMARKS
GARY*          MOSUNNY   59  50  72 SE7       30.04S
KNOX*          PTSUNNY   56  49  78 SE7       30.04S
SOUTH BEND     CLOUDY    57  48  72 SE10      30.06S
ELKHART*       CLOUDY    55  48  76 SE7       30.07R
GOSHEN         CLOUDY    55  49  80 SE8       30.07R
WARSAW*        PTSUNNY   55  50  82 SE9       30.06S
ANGOLA*        CLOUDY    55  48  76 SE5       30.07R
FORT WAYNE     PTSUNNY   56  51  84 SE7       30.07S

$$
INZ028>050-011600-
CENTRAL INDIANA

CITY           SKY/WX    TMP DP  RH WIND       PRES   REMARKS
LAFAYETTE      SUNNY     57  51  80 E6        30.03R
KOKOMO*        CLOUDY    52  48  87 SE7       30.06S
MUNCIE*        CLOUDY    52  51  97 SE5       30.06R
INDIANAPOLIS   MOSUNNY   59  51  75 SE6       30.02S

$$
MIZ043>046-050>051-056>058-064>065-071>073-077>080-011600-
SOUTHWEST LOWER MICHIGAN

CITY           SKY/WX    TMP DP  RH WIND       PRES   REMARKS
BATTLE CREEK   CLOUDY    54  47  77 CALM      30.08S
BENTON HARBOR  CLOUDY    56  48  74 S6        30.05S
COLDWATER*     PTSUNNY   59  49  70 SE5       30.06S
HILLSDALE*     MOSUNNY   59  49  70 S7        30.07R
HOLLAND        CLOUDY    55  49  80 SE8       30.08R
GRAND RAPIDS   CLOUDY    56  52  86 SE6       30.07R
KALAMAZOO      CLOUDY    57  47  69 VRB3      30.07S
STURGIS*       CLOUDY    55  48  76 SE9       30.06R
THREE RIVERS*  PTSUNNY   57  49  75 S3        30.07R

$$
OHZ001>008-015>018-024>025-011600-
NORTHWEST OHIO

CITY           SKY/WX    TMP DP  RH WIND       PRES   REMARKS
DEFIANCE       MOSUNNY   59  50  72 VRB3      30.08R
FINDLAY        CLOUDY    58  52  80 CALM      30.06S
TOLEDO EXPRESS SUNNY     58  51  78 N3        30.07S
TOLEDO METCALF CLOUDY    61  53  75 N3        30.08R
LIMA           CLOUDY    58  52  80 E6        30.06S

$$
AND FOR LAKE MICHIGAN COASTAL AND OPEN LAKE BUOY OBSERVATIONS

STATION/POSITION TEMP    WIND        PRES    VSBY  WAVE
                 AIR SEA DIR/SP/G                  HT/PER
                 (F)     (DEG/KT/KT) (MB)    (MI)  (FT/S)
CALUMET HARBOR    57     110/  5/ 10 1015.8R
MICHIGAN CITY     54     120/  8/ 11   N/A
SAINT JOSEPH      56      CALM  /  3 1017.9R
SOUTH LAKE BUOY   56 61  150/ 10/ 14 1017.2R         2/ 3
4 MI NW BRIDGMAN  56 62  120/  6/ 10   N/A           1/ 2
MICHIGAN CITY     57 64  140/ 10/ 14   N/A           1/ 2
SAINT JOSEPH CG                      1017.8      6   1

$$
&&



USA.gov is the U.S. government's official web portal to all federal, state and local government web resources and services.